Regional Weather Roundup
Issued by NWS

Home | Current Version | Previous Version | Graphics & Text | Print | Product List | Glossary On
Versions: 1 2 3 4 5 6 7 8 9 10 11 12 13 14 15 16 17 18 19 20 21 22 23 24 25 26 27 28 29 30 31 32 33 34 35 36 37 38 39 40 41 42 43 44 45 46 47 48 49 50
000
ASUS43 KLSX 261507
RWRMO

WEATHER SUMMARY FOR MISSOURI
NATIONAL WEATHER SERVICE SPRINGFIELD MO
1000 AM CDT MON SEP 26 2016

NOTE: "FAIR" INDICATES FEW OR NO CLOUDS BELOW 12,000 FEET WITH NO
       SIGNIFICANT WEATHER AND/OR OBSTRUCTIONS TO VISIBILITY.
       CURRENT SKY AND/OR WEATHER CONDITIONS ARE NOT AVAILABLE FOR
       CHILLICOTHE AND FARMINGTON.

MOZ001>031-035>038-043-044-053-054-261600-
...NORTHERN AND WESTERN MISSOURI...

CITY           SKY/WX    TMP DP  RH WIND       PRES   REMARKS
KANSAS CTY INT SUNNY     58  45  62 W7        30.26S
KANSAS C DTWN  SUNNY     61  46  57 NW5       30.26S
LEE`S SUMMIT   SUNNY     61  48  62 W6        30.27R
ST JOSEPH      SUNNY     60  45  57 W3        30.26S
CHILLICOTHE      N/A     63  46  54 VRB5      30.24R
KIRKSVILLE     SUNNY     62  44  51 W8        30.20S

$$
MOZ066>068-077>081-088>096-101>105-261600-
...SOUTHWEST MISSOURI...

CITY           SKY/WX    TMP DP  RH WIND       PRES   REMARKS
SPRINGFIELD    SUNNY     64  49  57 N12       30.25R
JOPLIN         SUNNY     64  52  64 NE6       30.28R
BRANSON        PTSUNNY   61  57  88 N7        30.26R

$$
MOZ032>034-039>042-045>050-055>058-069>072-261600-
...CENTRAL MISSOURI...

CITY           SKY/WX    TMP DP  RH WIND       PRES   REMARKS
COLUMBIA       SUNNY     63  49  60 NW8       30.22S
JEFFERSON CITY SUNNY     63  50  62 NW6       30.22R
ROLLA          SUNNY     62  52  69 NW10      30.21R
SEDALIA        SUNNY     65  46  50 NW7       30.26R
WHITEMAN AFB   MOSUNNY   63  49  60 NW6       30.25R
OSAGE BEACH    SUNNY     63  52  67 VRB3      30.25R

$$
MOZ051-052-059>065-261600-
...EAST CENTRAL MISSOURI...

CITY           SKY/WX    TMP DP  RH WIND       PRES   REMARKS
ST LOUIS INTL  NOT AVBL
SPIRIT OF STL  MOSUNNY   66  52  60 NW8       30.18R
ST CHARLES     SUNNY     66  50  56 N10       30.18R

$$
MOZ072>076-082>087-097>100-106>115-261600-
...SOUTH CENTRAL AND SOUTHEAST MISSOURI...

CITY           SKY/WX    TMP DP  RH WIND       PRES   REMARKS
CAPE GIRARDEAU PTSUNNY   62  55  77 N7        30.18R
FARMINGTON     PTSUNNY   63  56  78 NW9       30.19S
WEST PLAINS    PTSUNNY   63  55  75 N6        30.23R

$$



USA.gov is the U.S. government's official web portal to all federal, state and local government web resources and services.